Orbital Elements at Epoch 2459000.5 (2020-May-31.0) TDB
Reference: JPL 14 (heliocentric ecliptic J2000)
Element | Value | Uncertainty (1-sigma) | Units |
e | .08131069323398316 | 1.0988e-07 | |
a | 3.175445767915015 | 6.3789e-08 | au |
q | 2.917248071198927 | 3.507e-07 | au |
i | 20.94096617308104 | 1.367e-05 | deg |
node | 24.83345128242107 | 2.0006e-05 | deg |
peri | 195.8490026997202 | 5.876e-05 | deg |
M | 129.9087632707419 | 5.6307e-05 | deg |
tp | 2458254.667293219679 (2018-May-16.16729322) | 0.0003198 | TDB |
period | 2066.833427405795 5.66 | 6.2278e-05 1.705e-07 | d yr |
n | .1741794937252671 | 5.2484e-09 | deg/d |
Q | 3.433643464631102 | 6.8976e-08 | au |
|
| | Orbit Determination Parameters
Additional Information
|